FLT555 TNCM-TNCS

Flight info

Callsign FLT555
Flight time N/A
Altitude 3000
Route TFFJ
Aircraft C152/L-VGD/C

Departure

Time 2026-05-01 10:39
Airport Princess Juliana International Airport (TNCM)

Arrival

Time N/A
Airport Juancho E. Yrausquin Airport (TNCS)
Time Latitude Longitude Altitude Speed Heading
2026-05-01 10:23 18.04184 -63.10948 16 ft 0 kts 352°
2026-05-01 10:35 18.04194 -63.10958 16 ft 5 kts 277°
2026-05-01 10:36 18.04163 -63.11060 16 ft 10 kts 260°
2026-05-01 10:36 18.04151 -63.11139 16 ft 12 kts 260°
2026-05-01 10:36 18.04138 -63.11236 16 ft 15 kts 261°
2026-05-01 10:37 18.04107 -63.11294 16 ft 5 kts 175°
2026-05-01 10:37 18.04105 -63.11294 16 ft 0 kts 171°
2026-05-01 10:37 18.04074 -63.11287 15 ft 8 kts 169°
2026-05-01 10:38 18.04044 -63.11248 15 ft 6 kts 76°
2026-05-01 10:38 18.04075 -63.11031 17 ft 56 kts 82°
2026-05-01 10:38 18.04153 -63.10506 87 ft 81 kts 85°
2026-05-01 10:38 18.04128 -63.09942 374 ft 77 kts 118°
2026-05-01 10:39 18.03751 -63.09561 695 ft 75 kts 118°
2026-05-01 10:39 18.03459 -63.09117 971 ft 73 kts 136°
2026-05-01 10:39 18.03130 -63.08685 1116 ft 85 kts 124°
2026-05-01 10:39 18.02839 -63.08140 1305 ft 90 kts 117°
2026-05-01 10:40 18.02595 -63.07504 1384 ft 97 kts 119°
2026-05-01 10:40 18.02365 -63.06927 1705 ft 83 kts 115°
2026-05-01 10:40 18.02048 -63.06369 1776 ft 92 kts 131°
2026-05-01 10:40 18.01630 -63.05823 1932 ft 105 kts 128°
2026-05-01 10:41 18.01188 -63.05201 2065 ft 103 kts 128°
2026-05-01 10:41 18.00755 -63.04624 2276 ft 98 kts 129°
2026-05-01 10:41 17.99901 -63.03470 2429 ft 112 kts 129°
2026-05-01 10:42 17.99400 -63.02836 2413 ft 115 kts 130°
2026-05-01 10:42 17.98967 -63.02142 2401 ft 116 kts 103°
2026-05-01 10:42 17.98886 -63.01298 2412 ft 117 kts 110°
2026-05-01 10:42 17.98650 -63.00477 2405 ft 116 kts 108°
2026-05-01 10:43 17.98420 -62.99680 2354 ft 114 kts 112°
2026-05-01 10:43 17.98110 -62.98901 2285 ft 116 kts 114°
2026-05-01 10:43 17.97761 -62.98144 2254 ft 116 kts 119°
2026-05-01 10:43 17.97341 -62.97439 2292 ft 112 kts 126°
2026-05-01 10:44 17.96924 -62.96745 2289 ft 113 kts 123°
2026-05-01 10:44 17.96491 -62.96112 2263 ft 105 kts 128°
2026-05-01 10:44 17.96082 -62.95480 2128 ft 101 kts 125°
2026-05-01 10:44 17.95702 -62.94895 2013 ft 95 kts 125°
2026-05-01 10:45 17.95309 -62.94327 1801 ft 98 kts 128°
2026-05-01 10:45 17.94913 -62.93745 1581 ft 97 kts 124°
2026-05-01 10:45 17.94550 -62.93157 1417 ft 94 kts 124°
2026-05-01 10:45 17.94195 -62.92592 1302 ft 91 kts 124°
2026-05-01 10:46 17.93846 -62.92042 1183 ft 90 kts 123°
2026-05-01 10:46 17.93504 -62.91506 1068 ft 87 kts 125°
2026-05-01 10:46 17.93152 -62.90999 934 ft 89 kts 129°
2026-05-01 10:46 17.92789 -62.90475 850 ft 88 kts 128°
2026-05-01 10:47 17.92454 -62.89937 801 ft 87 kts 125°
2026-05-01 10:47 17.92140 -62.89402 803 ft 86 kts 122°
2026-05-01 10:47 17.91858 -62.88902 838 ft 77 kts 122°
2026-05-01 10:47 17.91576 -62.88429 810 ft 77 kts 123°
2026-05-01 10:48 17.91308 -62.87930 667 ft 77 kts 121°
2026-05-01 10:48 17.91053 -62.87466 575 ft 69 kts 119°
2026-05-01 10:48 17.90849 -62.87015 573 ft 68 kts 112°
2026-05-01 10:48 17.90695 -62.86540 577 ft 71 kts 109°
2026-05-01 10:49 17.90582 -62.86030 525 ft 73 kts 105°
2026-05-01 10:49 17.90492 -62.85504 398 ft 74 kts 101°
2026-05-01 10:49 17.90444 -62.84986 211 ft 66 kts 95°
2026-05-01 10:49 17.90441 -62.84542 51 ft 60 kts 95°
2026-05-01 10:50 17.90453 -62.84264 26 ft 16 kts 119°